{"data":{"norad_id":55468,"intl_designator":"2023-015V","name":"STARLINK-5672","alt_names":[],"object_type":"PAYLOAD","status":"ACTIVE","operator":null,"country":"US","launch_date":"2023-02-02","launch_site_code":"AFETR","launch_vehicle":null,"mission":null,"orbit_class":"UNKNOWN","rcs_meters":null,"size_class":null,"mass_kg":null,"dimensions":null,"purposes":["comms"],"wikipedia_slug":null,"has_3d_model":false,"image_url":null,"decayed_at":null,"tle_current":{"epoch":"2026-09-20T14:51:11.688192Z","epoch_age_seconds":90136,"freshness":"FRESH","line1":"1 55468U 23015V   26263.61888528 -.00000772  00000+0 -18547-4 0  9990","line2":"2 55468  43.0024 307.8868 0001220 275.1045  84.9667 15.27578486200535","mean_motion":15.27578486,"eccentricity":0.000122,"inclination_deg":43.0024,"raan_deg":307.8868,"arg_perigee_deg":275.1045,"mean_anomaly_deg":84.9667,"bstar":-1.8547e-5,"rev_number":20053,"period_min":94.266842142473,"perigee_km":482.21656424726,"apogee_km":483.89069476085,"semimajor_km":6861.1906295041,"source":"CELESTRAK","updated_at":"2026-09-21T09:00:33.231246Z"}}}